Location: *
(45.9500°N, 9.0833°E)
Time: 20:57:56
(UTC+00:00)

SeaSat 1 - Pass Details

Date: 03 March 2021
Orbit: 744 x 747 km, 108.0° (Epoch: 20 April)

Event Time Altitude Azimuth Distance (km) Brightness Sun altitude
Rises 19:33:33 0° 21° (NNE) 3,201 5.7 -24.9°
Reaches altitude 10° 19:35:58 10° 12° (NNE) 2,273 5.0 -25.3°
Maximum altitude 19:40:25 35° 309° (NW) 1,207 4.0 -26.1°
Drops below altitude 10° 19:44:50 10° 245° (WSW) 2,263 5.5 -26.8°
Sets 19:47:15 0° 236° (SW) 3,184 6.2 -27.2°
